This is the latest recevied weather packets stored in our database for station/object SR9NLI. If no packets are shown the sender has not sent any weather packets the latest 1 day(s).
| Time | Temp. | Humidity | Pressure | Rain* | Wind** | Luminosity | Snow |
|---|---|---|---|---|---|---|---|
| 1777956883 | 11.67° C | 100% | 953.3 hPa | - | 0.45 m/s, 353° | - | - |
| 1777956821 | 11.67° C | 100% | 953.3 hPa | - | 0.45 m/s, 0° | - | - |
| 1777956698 | 12.22° C | 100% | 953.2 hPa | - | 0.45 m/s, 0° | - | - |
| 1777956575 | 11.67° C | 100% | 953.3 hPa | - | 0.45 m/s, 122° | - | - |
| 1777956515 | 11.67° C | 100% | 953.4 hPa | - | 0.45 m/s, 129° | - | - |
| 1777956452 | 11.67° C | 100% | 953.3 hPa | - | 0.89 m/s, 132° | - | - |
| 1777956329 | 11.67° C | 100% | 953.3 hPa | - | 0.89 m/s, 146° | - | - |
| 1777956207 | 11.67° C | 100% | 953.4 hPa | - | 0.89 m/s, 159° | - | - |
| 1777956146 | 11.11° C | 100% | 953.3 hPa | - | 0.89 m/s, 160° | - | - |
| 1777956084 | 11.67° C | 100% | 953.3 hPa | - | 0.89 m/s, 164° | - | - |
| 1777955961 | 11.67° C | 100% | 953.3 hPa | - | 0 m/s | - | - |
| 1777955838 | 11.11° C | 100% | 953.3 hPa | - | 0.45 m/s, 145° | - | - |
| 1777955777 | 10.56° C | 100% | 953.3 hPa | - | 0.89 m/s, 145° | - | - |
| 1777955715 | 10.56° C | 100% | 953.4 hPa | - | 0.89 m/s, 142° | - | - |
| 1777955591 | 10.56° C | 100% | 953.3 hPa | - | 0.45 m/s, 141° | - | - |
| 1777955467 | 11.11° C | 100% | 953.4 hPa | - | 0 m/s | - | - |
| 1777955407 | 11.11° C | 100% | 953.3 hPa | - | 0 m/s | - | - |
| 1777955344 | 11.11° C | 100% | 953.5 hPa | - | 0 m/s | - | - |
| 1777955222 | 10.56° C | 100% | 953.4 hPa | - | 0 m/s | - | - |
| 1777955098 | 10.56° C | 100% | 953.4 hPa | - | 0 m/s | - | - |
| 1777955037 | 10° C | 100% | 953.4 hPa | - | 0.45 m/s, 132° | - | - |
| 1777954975 | 10° C | 100% | 953.5 hPa | - | 0.45 m/s, 0° | - | - |
| 1777954852 | 10° C | 100% | 953.5 hPa | - | 0.45 m/s, 345° | - | - |
| 1777954728 | 10° C | 100% | 953.5 hPa | - | 0.89 m/s, 0° | - | - |
| 1777954668 | 10° C | 100% | 953.5 hPa | - | 0.89 m/s, 152° | - | - |
* Rain since midnight (hover to see other rain measurements)
** Current wind speed in m/s (hover to see current wind gust speed)